ALK116 VRMM-VCBI

Flight info

Callsign ALK116
Flight time 1h 12m
Altitude 33000
Route HOKEY1A HOKEY M512 TELIG LALUM1A
Aircraft A320/M-SDE3FGHIRWY/LB1

Departure

Time 2026-04-27 13:20
Airport Velana International Airport (VRMM)

Arrival

Time 2026-04-27 14:32
Airport Bandaranaike International Colombo Airport (VCBI)
Time Latitude Longitude Altitude Speed Heading
2026-04-27 13:02 4.18313 73.52782 13 ft 0 kts 269°
2026-04-27 13:12 4.18313 73.52799 12 ft 4 kts 269°
2026-04-27 13:12 4.18314 73.52826 12 ft 4 kts 269°
2026-04-27 13:12 4.18317 73.52850 12 ft 4 kts 226°
2026-04-27 13:13 4.18339 73.52860 12 ft 4 kts 181°
2026-04-27 13:13 4.18350 73.52860 12 ft 0 kts 179°
2026-04-27 13:15 4.18342 73.52860 12 ft 0 kts 179°
2026-04-27 13:16 4.18323 73.52860 12 ft 5 kts 179°
2026-04-27 13:16 4.18268 73.52861 12 ft 9 kts 179°
2026-04-27 13:16 4.18213 73.52862 12 ft 7 kts 179°
2026-04-27 13:16 4.18170 73.52863 12 ft 5 kts 179°
2026-04-27 13:17 4.18137 73.52866 12 ft 5 kts 162°
2026-04-27 13:17 4.18123 73.52898 12 ft 5 kts 92°
2026-04-27 13:17 4.18153 73.52930 12 ft 9 kts 11°
2026-04-27 13:17 4.18191 73.52959 12 ft 7 kts 67°
2026-04-27 13:18 4.18194 73.53000 12 ft 5 kts 88°
2026-04-27 13:18 4.18198 73.53055 13 ft 13 kts 86°
2026-04-27 13:18 4.18225 73.53100 12 ft 7 kts 15°
2026-04-27 13:18 4.18262 73.53102 12 ft 0 kts
2026-04-27 13:19 4.18263 73.53102 13 ft 2 kts
2026-04-27 13:19 4.18448 73.53102 13 ft 62 kts 359°
2026-04-27 13:19 4.19109 73.53101 13 ft 125 kts 360°
2026-04-27 13:20 4.20156 73.53097 23 ft 173 kts 358°
2026-04-27 13:20 4.21379 73.53112 541 ft 179 kts 360°
2026-04-27 13:20 4.22642 73.53155 1183 ft 184 kts
2026-04-27 13:20 4.23939 73.53189 1815 ft 189 kts 359°
2026-04-27 13:21 4.25295 73.53184 2242 ft 202 kts 357°
2026-04-27 13:21 4.26743 73.53135 2591 ft 218 kts 356°
2026-04-27 13:21 4.28359 73.53078 2822 ft 245 kts 357°
2026-04-27 13:21 4.30142 73.53038 3214 ft 267 kts 358°
2026-04-27 13:22 4.32035 73.53021 3765 ft 281 kts 359°
2026-04-27 13:22 4.33989 73.53034 4844 ft 273 kts
2026-04-27 13:22 4.35878 73.53076 5777 ft 275 kts
2026-04-27 13:22 4.37795 73.53138 5963 ft 281 kts
2026-04-27 13:23 4.39726 73.53407 6095 ft 281 kts 17°
2026-04-27 13:23 4.41469 73.54331 6581 ft 292 kts 39°
2026-04-27 13:23 4.42782 73.55869 7413 ft 288 kts 62°
2026-04-27 13:23 4.43419 73.57721 8495 ft 278 kts 77°
2026-04-27 13:24 4.43925 73.59639 8989 ft 292 kts 74°
2026-04-27 13:24 4.44542 73.61602 9603 ft 297 kts 70°
2026-04-27 13:24 4.45234 73.63561 10275 ft 301 kts 70°
2026-04-27 13:24 4.45948 73.65553 10887 ft 307 kts 70°
2026-04-27 13:25 4.46694 73.67609 11301 ft 321 kts 69°
2026-04-27 13:25 4.47490 73.69733 11768 ft 332 kts 69°
2026-04-27 13:25 4.48336 73.71928 12191 ft 342 kts 68°
2026-04-27 13:25 4.49213 73.74172 12711 ft 349 kts 69°
2026-04-27 13:26 4.50080 73.76461 13311 ft 353 kts 69°
2026-04-27 13:26 4.50904 73.78775 14037 ft 352 kts 69°
2026-04-27 13:26 4.51686 73.81103 14684 ft 354 kts 71°
2026-04-27 13:26 4.52425 73.83457 15329 ft 355 kts 72°
2026-04-27 13:27 4.53140 73.85840 15876 ft 358 kts 73°
2026-04-27 13:27 4.53864 73.88241 16414 ft 362 kts 71°
2026-04-27 13:27 4.54678 73.90639 16941 ft 365 kts 70°
2026-04-27 13:27 4.55533 73.93008 17482 ft 367 kts 69°
2026-04-27 13:28 4.56414 73.95416 18009 ft 369 kts 69°
2026-04-27 13:28 4.57293 73.97842 18538 ft 372 kts 69°
2026-04-27 13:28 4.58164 74.00293 19054 ft 374 kts 70°
2026-04-27 13:28 4.59023 74.02760 19573 ft 376 kts 70°
2026-04-27 13:29 4.59877 74.05246 20066 ft 379 kts 70°
2026-04-27 13:29 4.60737 74.07754 20547 ft 381 kts 70°
2026-04-27 13:29 4.61601 74.10273 21019 ft 384 kts 70°
2026-04-27 13:29 4.62472 74.12811 21477 ft 386 kts 70°
2026-04-27 13:30 4.63352 74.15365 21928 ft 389 kts 70°
2026-04-27 13:30 4.64239 74.17931 22371 ft 391 kts 70°
2026-04-27 13:30 4.65133 74.20513 22811 ft 393 kts 70°
2026-04-27 13:30 4.66029 74.23111 23235 ft 396 kts 70°
2026-04-27 13:31 4.66924 74.25726 23628 ft 398 kts 70°
2026-04-27 13:31 4.67824 74.28356 24017 ft 400 kts 70°
2026-04-27 13:31 4.68731 74.30998 24387 ft 402 kts 70°
2026-04-27 13:31 4.69646 74.33657 24726 ft 405 kts 70°
2026-04-27 13:32 4.70569 74.36332 25067 ft 407 kts 70°
2026-04-27 13:32 4.71483 74.38989 25399 ft 410 kts 70°
2026-04-27 13:32 4.72413 74.41693 25714 ft 412 kts 70°
2026-04-27 13:32 4.73351 74.44418 26039 ft 414 kts 70°
2026-04-27 13:33 4.74295 74.47153 26344 ft 417 kts 71°
2026-04-27 13:33 4.75245 74.49906 26636 ft 419 kts 71°
2026-04-27 13:33 4.76197 74.52679 26919 ft 421 kts 71°
2026-04-27 13:33 4.77153 74.55463 27201 ft 423 kts 71°
2026-04-27 13:34 4.78115 74.58260 27467 ft 425 kts 71°
2026-04-27 13:34 4.79081 74.61070 27747 ft 427 kts 71°
2026-04-27 13:34 4.80050 74.63890 27994 ft 429 kts 71°
2026-04-27 13:34 4.81027 74.66733 28254 ft 432 kts 71°
2026-04-27 13:35 4.82007 74.69583 28515 ft 433 kts 71°
2026-04-27 13:35 4.82991 74.72444 28773 ft 436 kts 71°
2026-04-27 13:35 4.83979 74.75321 29033 ft 437 kts 71°
2026-04-27 13:35 4.84970 74.78209 29270 ft 439 kts 72°
2026-04-27 13:36 4.85962 74.81109 29505 ft 441 kts 72°
2026-04-27 13:36 4.86961 74.84021 29736 ft 442 kts 72°
2026-04-27 13:36 4.87966 74.86943 29966 ft 444 kts 72°
2026-04-27 13:36 4.88975 74.89879 30180 ft 446 kts 72°
2026-04-27 13:37 4.89996 74.92821 30387 ft 448 kts 72°
2026-04-27 13:37 4.91016 74.95774 30584 ft 449 kts 72°
2026-04-27 13:37 4.92018 74.98699 30777 ft 450 kts 72°
2026-04-27 13:37 4.93032 75.01675 30957 ft 452 kts 72°
2026-04-27 13:38 4.94052 75.04668 31152 ft 454 kts 72°
2026-04-27 13:38 4.95074 75.07656 31428 ft 453 kts 72°
2026-04-27 13:38 4.96098 75.10641 31701 ft 452 kts 72°
2026-04-27 13:38 4.97122 75.13621 31971 ft 452 kts 72°
2026-04-27 13:39 4.98146 75.16597 32238 ft 452 kts 72°
2026-04-27 13:39 4.99166 75.19574 32502 ft 451 kts 72°
2026-04-27 13:39 5.00185 75.22553 32730 ft 452 kts 72°
2026-04-27 13:39 5.01202 75.25525 32805 ft 446 kts 72°
2026-04-27 13:40 5.03187 75.31311 32812 ft 435 kts 72°
2026-04-27 13:40 5.05142 75.37036 32813 ft 434 kts 72°
2026-04-27 13:41 5.07094 75.42755 32813 ft 433 kts 72°
2026-04-27 13:41 5.09051 75.48471 32812 ft 433 kts 72°
2026-04-27 13:42 5.11010 75.54178 32808 ft 432 kts 72°
2026-04-27 13:42 5.12963 75.59884 32805 ft 432 kts 72°
2026-04-27 13:43 5.14901 75.65549 32802 ft 432 kts 72°
2026-04-27 13:43 5.16856 75.71254 32803 ft 433 kts 72°
2026-04-27 13:44 5.18807 75.76969 32803 ft 432 kts 72°
2026-04-27 13:44 5.20752 75.82676 32800 ft 432 kts 72°
2026-04-27 13:45 5.22699 75.88394 32803 ft 433 kts 72°
2026-04-27 13:45 5.24651 75.94108 32805 ft 433 kts 72°
2026-04-27 13:46 5.26596 75.99819 32805 ft 433 kts 72°
2026-04-27 13:46 5.28539 76.05536 32804 ft 433 kts 72°
2026-04-27 13:47 5.30498 76.11244 32801 ft 433 kts 72°
2026-04-27 13:47 5.32459 76.16957 32802 ft 433 kts 72°
2026-04-27 13:48 5.34079 76.21711 32803 ft 433 kts 72°
2026-04-27 13:48 5.36016 76.27439 32805 ft 433 kts 72°
2026-04-27 13:49 5.37958 76.33162 32806 ft 433 kts 72°
2026-04-27 13:49 5.39910 76.38884 32805 ft 433 kts 72°
2026-04-27 13:50 5.41863 76.44604 32806 ft 433 kts 72°
2026-04-27 13:50 5.43812 76.50324 32805 ft 433 kts 72°
2026-04-27 13:51 5.45749 76.56091 32813 ft 435 kts 72°
2026-04-27 13:51 5.47700 76.61828 32813 ft 434 kts 72°
2026-04-27 13:52 5.49655 76.67556 32813 ft 434 kts 72°
2026-04-27 13:52 5.51602 76.73294 32813 ft 434 kts 72°
2026-04-27 13:53 5.54519 76.81896 32810 ft 434 kts 72°
2026-04-27 13:54 5.56469 76.87629 32808 ft 434 kts 72°
2026-04-27 13:54 5.58406 76.93321 32809 ft 434 kts 72°
2026-04-27 13:55 5.60353 76.99057 32809 ft 434 kts 72°
2026-04-27 13:55 5.62295 77.04795 32814 ft 434 kts 72°
2026-04-27 13:56 5.64234 77.10528 32814 ft 434 kts 72°
2026-04-27 13:56 5.66180 77.16254 32817 ft 433 kts 72°
2026-04-27 13:57 5.68121 77.21977 32819 ft 432 kts 72°
2026-04-27 13:57 5.70053 77.27688 32819 ft 431 kts 72°
2026-04-27 13:58 5.71988 77.33388 32813 ft 432 kts 72°
2026-04-27 13:58 5.73916 77.39097 32813 ft 431 kts 72°
2026-04-27 13:59 5.75839 77.44801 32809 ft 431 kts 72°
2026-04-27 13:59 5.77768 77.50500 32806 ft 431 kts 72°
2026-04-27 14:00 5.79696 77.56200 32805 ft 431 kts 72°
2026-04-27 14:00 5.81607 77.61857 32803 ft 431 kts 72°
2026-04-27 14:01 5.83546 77.67589 32804 ft 431 kts 72°
2026-04-27 14:01 5.85459 77.73244 32801 ft 431 kts 71°
2026-04-27 14:02 5.87385 77.78939 32800 ft 430 kts 72°
2026-04-27 14:02 5.89302 77.84630 32801 ft 430 kts 72°
2026-04-27 14:03 5.91217 77.90321 32800 ft 430 kts 72°
2026-04-27 14:03 5.93136 77.96015 32798 ft 430 kts 71°
2026-04-27 14:04 5.95054 78.01701 32798 ft 430 kts 72°
2026-04-27 14:04 5.96971 78.07389 32797 ft 430 kts 71°
2026-04-27 14:05 5.98891 78.13073 32798 ft 430 kts 71°
2026-04-27 14:05 6.00789 78.18723 32795 ft 430 kts 72°
2026-04-27 14:06 6.02701 78.24416 32800 ft 430 kts 72°
2026-04-27 14:06 6.04614 78.30115 32747 ft 430 kts 72°
2026-04-27 14:06 6.05572 78.32968 32089 ft 432 kts 72°
2026-04-27 14:07 6.06530 78.35809 31596 ft 427 kts 72°
2026-04-27 14:07 6.07479 78.38620 31076 ft 423 kts 72°
2026-04-27 14:07 6.08417 78.41402 30576 ft 419 kts 72°
2026-04-27 14:07 6.09346 78.44161 30086 ft 414 kts 72°
2026-04-27 14:08 6.10264 78.46891 29607 ft 410 kts 72°
2026-04-27 14:08 6.11171 78.49588 29150 ft 405 kts 72°
2026-04-27 14:08 6.12067 78.52256 28695 ft 401 kts 71°
2026-04-27 14:08 6.13015 78.54874 28236 ft 397 kts 65°
2026-04-27 14:09 6.14396 78.57252 27785 ft 393 kts 54°
2026-04-27 14:09 6.16219 78.59276 27334 ft 391 kts 42°
2026-04-27 14:09 6.18344 78.60967 26881 ft 388 kts 39°
2026-04-27 14:09 6.20478 78.62611 26416 ft 385 kts 39°
2026-04-27 14:10 6.22593 78.64246 25953 ft 382 kts 39°
2026-04-27 14:10 6.24690 78.65870 25479 ft 379 kts 39°
2026-04-27 14:10 6.26776 78.67485 24999 ft 377 kts 39°
2026-04-27 14:10 6.28840 78.69091 24516 ft 374 kts 39°
2026-04-27 14:11 6.30894 78.70691 24022 ft 372 kts 38°
2026-04-27 14:11 6.32905 78.72255 23551 ft 369 kts 38°
2026-04-27 14:11 6.34932 78.73828 23064 ft 367 kts 38°
2026-04-27 14:11 6.36947 78.75388 22578 ft 365 kts 38°
2026-04-27 14:12 6.38956 78.76940 22101 ft 363 kts 38°
2026-04-27 14:12 6.40929 78.78510 21633 ft 360 kts 43°
2026-04-27 14:12 6.42598 78.80365 21177 ft 357 kts 52°
2026-04-27 14:12 6.44136 78.82316 20722 ft 355 kts 52°
2026-04-27 14:13 6.45670 78.84254 20274 ft 353 kts 52°
2026-04-27 14:13 6.47196 78.86166 19826 ft 348 kts 52°
2026-04-27 14:13 6.48707 78.88069 19390 ft 347 kts 52°
2026-04-27 14:13 6.50208 78.89961 18952 ft 346 kts 52°
2026-04-27 14:14 6.51703 78.91847 18517 ft 344 kts 52°
2026-04-27 14:14 6.53189 78.93722 18089 ft 342 kts 52°
2026-04-27 14:14 6.54668 78.95588 17660 ft 340 kts 52°
2026-04-27 14:14 6.56140 78.97443 17222 ft 339 kts 52°
2026-04-27 14:15 6.57608 78.99292 16818 ft 337 kts 52°
2026-04-27 14:15 6.59049 79.01107 16409 ft 336 kts 52°
2026-04-27 14:15 6.60501 79.02938 15999 ft 334 kts 52°
2026-04-27 14:15 6.61944 79.04763 15593 ft 333 kts 52°
2026-04-27 14:16 6.63380 79.06581 15187 ft 331 kts 52°
2026-04-27 14:16 6.64809 79.08387 14792 ft 329 kts 52°
2026-04-27 14:16 6.66232 79.10185 14390 ft 328 kts 52°
2026-04-27 14:16 6.67650 79.11976 13995 ft 326 kts 52°
2026-04-27 14:17 6.69062 79.13756 13615 ft 324 kts 52°
2026-04-27 14:17 6.70441 79.15496 13478 ft 311 kts 52°
2026-04-27 14:17 6.71740 79.17135 13341 ft 289 kts 52°
2026-04-27 14:17 6.72950 79.18660 13134 ft 272 kts 52°
2026-04-27 14:18 6.74114 79.20132 12702 ft 268 kts 52°
2026-04-27 14:18 6.75271 79.21597 12421 ft 266 kts 52°
2026-04-27 14:18 6.76419 79.23050 12116 ft 265 kts 52°
2026-04-27 14:18 6.77559 79.24496 11812 ft 264 kts 52°
2026-04-27 14:19 6.78700 79.25935 11505 ft 264 kts 52°
2026-04-27 14:19 6.79825 79.27357 11326 ft 255 kts 52°
2026-04-27 14:19 6.80897 79.28714 11196 ft 246 kts 52°
2026-04-27 14:19 6.81948 79.30041 11001 ft 240 kts 52°
2026-04-27 14:20 6.82983 79.31348 10700 ft 238 kts 52°
2026-04-27 14:20 6.84010 79.32647 10368 ft 237 kts 52°
2026-04-27 14:20 6.85035 79.33943 10022 ft 237 kts 52°
2026-04-27 14:20 6.86058 79.35239 9676 ft 236 kts 52°
2026-04-27 14:21 6.87076 79.36531 9334 ft 235 kts 52°
2026-04-27 14:21 6.88094 79.37817 8971 ft 234 kts 52°
2026-04-27 14:21 6.89110 79.39100 8609 ft 234 kts 52°
2026-04-27 14:21 6.90121 79.40380 8274 ft 234 kts 52°
2026-04-27 14:22 6.91129 79.41657 7935 ft 232 kts 52°
2026-04-27 14:22 6.92132 79.42925 7600 ft 231 kts 52°
2026-04-27 14:22 6.93098 79.44212 7266 ft 229 kts 59°
2026-04-27 14:22 6.93781 79.45651 6937 ft 228 kts 72°
2026-04-27 14:23 6.94182 79.47187 6595 ft 227 kts 77°
2026-04-27 14:23 6.94562 79.48726 6260 ft 226 kts 76°
2026-04-27 14:23 6.94946 79.50252 5928 ft 225 kts 76°
2026-04-27 14:23 6.95330 79.51772 5606 ft 224 kts 76°
2026-04-27 14:24 6.95708 79.53279 5368 ft 222 kts 76°
2026-04-27 14:24 6.96086 79.54788 5234 ft 222 kts 76°
2026-04-27 14:24 6.96463 79.56296 5114 ft 222 kts 76°
2026-04-27 14:24 6.96834 79.57784 5000 ft 222 kts 76°
2026-04-27 14:25 6.97220 79.59294 4755 ft 223 kts 76°
2026-04-27 14:25 6.97616 79.60790 4476 ft 221 kts 76°
2026-04-27 14:25 6.98014 79.62277 4210 ft 219 kts 76°
2026-04-27 14:25 6.98409 79.63755 3944 ft 218 kts 76°
2026-04-27 14:26 6.98800 79.65225 3678 ft 217 kts 76°
2026-04-27 14:26 6.99189 79.66692 3413 ft 216 kts 76°
2026-04-27 14:26 6.99574 79.68151 3149 ft 215 kts 76°
2026-04-27 14:26 6.99956 79.69594 3062 ft 215 kts 76°
2026-04-27 14:27 7.00334 79.71037 2984 ft 212 kts 76°
2026-04-27 14:27 7.00721 79.72467 2895 ft 213 kts 76°
2026-04-27 14:27 7.01104 79.73909 2801 ft 215 kts 76°
2026-04-27 14:27 7.01629 79.75317 2705 ft 215 kts 59°
2026-04-27 14:28 7.02623 79.76477 2518 ft 222 kts 38°
2026-04-27 14:28 7.03839 79.77399 2345 ft 215 kts 39°
2026-04-27 14:28 7.04999 79.78313 2147 ft 209 kts 39°
2026-04-27 14:28 7.06129 79.79189 1996 ft 200 kts 39°
2026-04-27 14:29 7.07212 79.80020 1793 ft 192 kts 39°
2026-04-27 14:29 7.08241 79.80812 1632 ft 179 kts 40°
2026-04-27 14:29 7.09195 79.81542 1551 ft 165 kts 39°
2026-04-27 14:29 7.10079 79.82218 1538 ft 155 kts 39°
2026-04-27 14:30 7.10920 79.82863 1509 ft 149 kts 37°
2026-04-27 14:30 7.11745 79.83494 1325 ft 147 kts 39°
2026-04-27 14:30 7.12561 79.84118 1132 ft 146 kts 39°
2026-04-27 14:30 7.13367 79.84736 940 ft 145 kts 39°
2026-04-27 14:31 7.14167 79.85349 748 ft 144 kts 39°
2026-04-27 14:31 7.14966 79.85961 547 ft 144 kts 37°
2026-04-27 14:31 7.15765 79.86567 377 ft 144 kts 37°
2026-04-27 14:31 7.16554 79.87182 177 ft 143 kts 38°
2026-04-27 14:32 7.17341 79.87783 32 ft 135 kts 39°
2026-04-27 14:32 7.17950 79.88250 29 ft 85 kts 37°
2026-04-27 14:32 7.18296 79.88515 27 ft 50 kts 38°
2026-04-27 14:32 7.18555 79.88711 28 ft 44 kts 37°
2026-04-27 14:33 7.18685 79.88813 29 ft 8 kts 50°
2026-04-27 14:33 7.18680 79.88858 29 ft 6 kts 114°
2026-04-27 14:33 7.18658 79.88889 29 ft 5 kts 128°
2026-04-27 14:33 7.18637 79.88917 28 ft 5 kts 126°
2026-04-27 14:34 7.18617 79.88944 28 ft 5 kts 130°
2026-04-27 14:34 7.18591 79.88954 28 ft 5 kts 175°
2026-04-27 14:34 7.18506 79.88900 28 ft 22 kts 217°
2026-04-27 14:34 7.18381 79.88804 27 ft 24 kts 217°
2026-04-27 14:35 7.18246 79.88701 27 ft 25 kts 217°
2026-04-27 14:35 7.18103 79.88592 27 ft 27 kts 217°
2026-04-27 14:35 7.17953 79.88477 28 ft 28 kts 218°
2026-04-27 14:35 7.17797 79.88358 28 ft 28 kts 217°
2026-04-27 14:36 7.17687 79.88274 28 ft 10 kts 217°
2026-04-27 14:36 7.17642 79.88254 28 ft 4 kts 173°
2026-04-27 14:36 7.17622 79.88265 28 ft 3 kts 143°
2026-04-27 14:36 7.17593 79.88298 27 ft 7 kts 129°
2026-04-27 14:37 7.17567 79.88332 27 ft 5 kts 127°
2026-04-27 14:37 7.17542 79.88366 27 ft 7 kts 127°
2026-04-27 14:37 7.17519 79.88397 27 ft 5 kts 127°
2026-04-27 14:37 7.17495 79.88428 27 ft 7 kts 127°
2026-04-27 14:38 7.17476 79.88460 27 ft 2 kts 91°
2026-04-27 14:38 7.17485 79.88473 27 ft 1 kts 53°
2026-04-27 14:38 7.17495 79.88480 27 ft 3 kts 36°
2026-04-27 14:38 7.17510 79.88491 27 ft 2 kts 37°
2026-04-27 14:39 7.17530 79.88506 27 ft 5 kts 37°
2026-04-27 14:39 7.17534 79.88509 27 ft 0 kts 36°